Wind_Speed
7 6 5 4 4 3 3 2 2 1 1 1 2 3 3 3 4 4 4 5 5 5 5 5 5 5 5 4 4 4 4 4 4 4 4 4 4 5 6 6 6 6 6
8 7 6 6 5 4 3 3 2 2 1 0 1 2 2 2 3 3 3 3 3 3 3 3 4 4 3 3 3 3 3 3 3 3 3 3 4 4 4 4 5 5 5
9 8 8 7 6 5 5 4 3 2 2 1 1 0 1 2 2 2 3 3 2 2 2 2 2 2 2 2 2 2 2 2 2 2 2 3 3 3 4 4 4 4 5
10 9 9 8 7 6 6 5 4 3 3 2 1 1 1 1 2 2 3 3 2 2 2 2 1 1 1 1 0 0 0 0 0 1 1 2 2 2 3 3 4 4 4
11 10 9 9 8 7 7 6 5 4 3 3 2 2 1 1 2 2 3 3 3 3 3 2 2 1 1 1 1 1 1 1 1 1 0 1 1 1 2 2 3 3 3
12 11 11 10 9 8 7 7 6 6 5 4 3 3 2 2 2 3 3 3 3 3 3 3 3 3 3 3 2 3 3 3 3 2 2 1 1 0 0 1 1 2 2
13 12 11 11 10 9 8 8 7 7 6 5 5 4 4 3 3 3 3 4 4 4 4 4 3 4 4 4 4 4 4 4 3 3 3 3 2 2 1 1 0 1 1
13 13 12 11 11 10 9 9 8 8 7 7 6 5 5 5 4 4 4 4 4 4 4 4 4 4 5 5 5 5 5 4 4 5 5 4 3 3 3 2 2 1 1
15 14 14 13 12 11 10 10 10 9 9 8 8 7 6 5 6 5 5 5 5 6 6 6 6 6 6 6 6 7 6 6 6 6 6 6 5 5 4 4 4 4 3
17 16 15 15 14 13 12 11 11 11 10 10 9 8 7 6 6 6 5 5 5 6 6 7 7 7 7 7 8 8 7 7 7 8 7 6 7 7 6 6 6 6 5
18 18 17 16 15 15 14 12 12 12 12 11 10 8 7 7 6 7 6 6 6 6 6 6 7 7 8 8 8 8 8 8 8 8 8 8 9 8 8 8 8 7 8
19 19 18 17 17 16 15 15 13 13 12 12 11 10 8 7 7 7 6 5 5 6 6 6 6 6 6 7 7 7 8 8 8 8 9 9 10 10 10 9 9 9 9
21 21 20 20 20 18 17 16 15 14 14 13 11 9 8 7 7 7 6 5 5 5 5 6 6 6 6 6 7 7 8 9 9 9 9 10 10 11 11 11 11 11 11
23 23 22 21 20 19 18 18 17 15 14 12 10 9 7 7 6 6 5 5 5 5 5 5 5 5 5 6 6 6 8 9 8 8 9 10 10 10 11 12 12 12 12
24 24 23 22 21 20 19 18 17 16 14 12 10 9 8 8 6 5 5 4 4 4 5 4 4 5 4 5 5 5 6 8 8 8 9 9 10 10 11 12 13 13 13
24 24 22 22 22 21 20 18 17 16 14 12 11 9 8 7 6 6 5 4 4 5 5 5 5 4 4 4 5 5 5 6 7 9 9 10 10 11 11 12 13 14 14
24 24 24 24 23 22 21 19 18 16 15 12 11 10 9 8 7 5 4 4 5 5 5 5 5 4 4 5 5 5 5 6 8 8 9 10 11 12 12 13 14 15 15
25 25 25 25 24 22 20 19 18 17 15 13 11 10 9 8 6 5 4 4 4 4 5 5 5 5 5 5 5 5 5 6 7 8 9 10 11 12 12 13 14 14 15
23 24 24 24 23 20 19 19 17 16 15 13 11 9 8 7 6 5 3 3 4 4 5 5 5 5 5 5 5 5 5 6 7 8 9 10 10 11 12 12 13 14 15
20 21 21 22 21 20 18 17 15 14 14 12 11 9 7 6 5 4 3 3 4 4 4 4 5 5 5 5 5 5 6 6 7 8 9 10 11 12 12 13 14 15 15
19 19 19 19 18 17 18 17 15 14 13 11 10 8 7 6 5 4 4 3 3 3 4 4 5 5 6 6 6 7 7 8 8 9 10 11 11 12 13 14 14 15 16
16 17 18 18 17 17 17 17 15 14 11 9 8 7 7 6 5 4 3 3 3 3 3 4 5 6 6 7 7 7 8 8 9 10 11 11 12 13 14 14 15 16 17
14 14 15 16 16 16 16 16 14 12 10 9 8 8 7 6 5 4 3 3 3 3 3 4 5 6 7 8 8 9 9 9 10 11 11 12 13 13 14 15 16 17 17
12 13 13 14 15 15 14 13 12 11 10 9 9 8 7 6 6 4 3 3 2 2 3 4 5 6 7 8 9 10 11 11 11 12 12 12 13 14 15 16 17 17 18
10 11 12 12 13 13 13 13 12 11 10 10 9 8 8 7 5 4 3 3 3 3 4 5 6 7 8 9 10 11 12 12 13 14 14 14 15 15 16 17 18 19 19
8 10 10 11 11 11 11 11 11 10 10 10 9 9 8 7 6 5 5 4 4 4 5 6 7 8 9 10 11 12 13 14 15 15 16 16 16 17 17 18 18 19 20
Wind_Direction
224 215 205 201 197 204 212 231 242 236 156 111 108 99 89 87 86 83 83 85 82 78 75 73 70 72 73 72 71 73 72 71 68 66 68 72 78 79 82 85 89 87 88
232 226 218 212 210 216 225 235 237 234 223 151 104 90 79 77 74 73 71 72 71 70 69 66 66 68 68 66 65 67 70 68 70 71 75 75 75 78 78 81 92 91 92
231 229 225 221 221 225 232 237 243 241 242 242 272 42 60 62 55 52 44 41 44 48 50 49 54 62 66 64 61 65 69 62 60 78 92 99 88 84 80 85 98 99 95
233 231 227 225 227 230 231 236 248 249 247 255 267 299 5 30 31 25 21 14 12 10 7 2 10 25 37 42 37 37 43 31 19 24 91 116 93 90 79 83 88 95 92
233 229 227 227 229 231 231 234 251 260 255 261 265 278 307 337 345 352 354 349 343 339 330 326 326 319 305 293 274 261 250 247 253 275 326 123 107 103 84 82 81 84 85
233 229 226 227 229 232 234 241 253 259 256 259 261 264 277 302 317 326 330 328 326 326 323 316 308 295 283 275 271 257 248 244 252 254 260 229 186 183 112 94 84 88 105
232 226 224 226 231 236 239 247 253 254 252 257 263 267 270 283 300 305 307 308 313 314 312 310 304 291 282 271 268 259 248 250 252 257 258 253 232 233 233 225 204 118 104
228 225 227 230 235 239 243 246 248 249 250 257 262 266 270 277 283 291 294 294 298 301 304 301 302 293 288 275 269 266 256 253 249 252 260 256 245 240 242 243 241 238 234
229 228 229 231 235 239 241 245 246 246 249 253 258 263 269 276 282 288 293 293 291 292 293 290 289 287 287 280 274 268 260 256 253 257 256 254 252 250 250 251 251 249 243
233 231 232 232 235 237 239 243 245 246 247 251 254 260 267 275 282 285 288 293 296 295 293 288 282 283 282 282 278 269 260 256 256 253 254 260 257 255 253 253 252 253 246
234 233 232 234 236 237 236 240 244 245 245 248 251 258 266 275 284 280 281 286 293 296 296 294 287 279 279 279 278 270 263 261 253 249 257 264 260 258 257 256 253 255 252
237 232 233 236 239 239 236 238 242 245 243 247 250 254 262 270 281 280 281 285 289 290 289 293 295 285 281 279 278 269 263 266 264 256 260 261 260 257 257 257 257 256 256
238 235 238 238 239 238 240 240 242 245 245 248 250 254 263 273 281 279 279 282 286 294 296 295 296 293 280 280 279 272 260 259 267 264 260 260 261 260 259 259 261 258 258
238 235 234 233 235 237 240 242 242 245 249 247 250 254 261 276 281 280 276 280 291 299 305 303 300 296 291 285 276 274 268 266 274 271 268 266 266 264 263 260 261 263 262
236 232 231 233 234 236 239 242 244 246 248 248 250 253 264 278 284 282 280 291 304 309 312 308 307 308 306 302 296 288 279 272 282 278 274 273 272 267 264 264 264 265 265
236 231 235 235 232 234 237 242 244 247 248 248 252 258 268 272 274 277 288 296 301 308 313 310 313 315 314 310 300 293 288 284 288 281 277 277 277 273 270 269 267 267 267
234 233 236 233 232 234 237 239 243 245 249 248 255 262 263 263 264 269 287 299 307 311 312 314 315 312 313 316 310 299 294 289 292 291 283 282 280 278 276 273 272 272 271
235 235 233 231 232 234 236 239 242 243 245 248 254 259 257 253 253 263 279 296 311 317 317 317 316 314 317 321 321 317 311 305 302 298 290 287 284 281 280 279 279 279 276
234 235 233 231 232 233 234 238 240 240 241 246 250 255 252 243 242 252 266 293 318 321 321 326 329 334 333 331 329 325 324 315 311 306 296 293 292 289 285 284 285 283 283
231 230 227 227 231 229 231 233 235 236 237 240 248 250 242 233 232 239 260 288 313 324 330 338 348 350 347 340 336 333 329 324 318 312 305 299 295 293 291 289 289 289 287
229 227 223 223 223 226 231 231 228 230 233 233 238 236 234 232 229 238 259 280 309 333 342 347 353 355 354 349 345 339 332 327 323 319 313 307 301 296 293 291 290 291 290
223 221 221 223 226 229 230 228 227 231 231 221 224 224 221 224 226 235 251 271 306 335 341 349 356 1 360 353 347 342 337 332 327 324 320 314 309 306 302 298 293 291 290
218 216 218 221 220 221 224 224 226 224 215 216 215 214 213 214 222 230 245 267 298 324 345 354 357 357 355 350 346 343 340 337 332 329 326 321 317 313 309 305 301 296 293
208 209 213 216 216 217 221 218 214 214 214 214 213 212 210 210 219 224 244 272 297 325 340 347 346 344 343 342 341 340 337 335 332 329 328 323 320 318 315 311 306 301 297
199 200 206 210 210 211 211 210 212 214 214 216 212 212 212 212 217 225 248 264 283 306 324 332 333 334 335 336 336 335 334 332 330 328 327 324 321 318 316 314 310 307 304
185 190 196 199 205 207 207 208 212 214 216 217 215 220 222 221 220 230 242 256 273 293 309 319 323 326 327 329 330 330 330 329 329 327 325 324 322 320 318 316 312 308 306
Height
5894 5894 5895 5896 5896 5897 5898 5898 5898 5898 5898 5898 5898 5897 5897 5897 5897 5897 5897 5897 5897 5897 5897 5896 5896 5896 5896 5896 5895 5895 5895 5896 5896 5896 5896 5896 5896 5897 5897 5897 5897 5898 5898
5893 5894 5895 5895 5896 5897 5897 5898 5898 5898 5898 5898 5898 5898 5898 5898 5898 5898 5898 5897 5897 5897 5897 5897 5897 5896 5896 5896 5896 5896 5896 5896 5896 5896 5897 5897 5897 5898 5898 5898 5898 5899 5899
5891 5892 5894 5895 5896 5897 5897 5898 5898 5898 5898 5898 5899 5898 5898 5898 5898 5898 5898 5898 5898 5898 5897 5897 5897 5897 5897 5897 5897 5897 5897 5897 5897 5897 5897 5898 5898 5898 5899 5899 5899 5900 5901
5890 5892 5893 5894 5895 5896 5897 5897 5898 5898 5898 5898 5898 5899 5899 5899 5899 5898 5898 5898 5898 5898 5897 5897 5897 5897 5897 5897 5897 5897 5897 5897 5897 5897 5897 5898 5898 5899 5900 5900 5900 5901 5902
5889 5890 5891 5893 5894 5895 5896 5897 5897 5898 5898 5898 5898 5898 5899 5898 5898 5898 5898 5898 5898 5898 5897 5897 5897 5897 5897 5897 5897 5897 5897 5897 5897 5898 5898 5898 5899 5899 5900 5901 5901 5902 5903
5887 5888 5890 5892 5893 5894 5895 5896 5897 5897 5897 5898 5898 5898 5898 5898 5898 5898 5898 5898 5898 5898 5897 5897 5897 5897 5897 5897 5897 5897 5897 5897 5898 5898 5898 5898 5899 5900 5901 5901 5902 5903 5904
5885 5887 5888 5890 5892 5893 5894 5895 5896 5896 5897 5897 5898 5897 5898 5898 5898 5898 5898 5897 5897 5897 5897 5897 5897 5897 5897 5897 5897 5897 5897 5897 5898 5898 5898 5899 5899 5900 5901 5902 5903 5903 5904
5884 5885 5887 5888 5890 5891 5893 5894 5895 5896 5896 5897 5897 5897 5897 5897 5897 5897 5897 5897 5897 5897 5897 5897 5896 5896 5896 5896 5896 5897 5897 5897 5897 5898 5898 5899 5899 5900 5901 5902 5903 5904 5904
5881 5883 5885 5886 5888 5890 5891 5892 5893 5894 5895 5896 5896 5896 5896 5896 5896 5896 5896 5896 5896 5896 5896 5896 5896 5896 5896 5896 5896 5896 5896 5897 5897 5897 5897 5898 5899 5900 5901 5902 5903 5904 5904
5879 5881 5883 5884 5886 5888 5889 5891 5892 5893 5894 5894 5895 5895 5895 5895 5895 5895 5895 5895 5895 5895 5895 5895 5895 5895 5895 5895 5895 5895 5895 5896 5897 5896 5895 5896 5898 5899 5900 5901 5902 5903 5904
5876 5878 5880 5882 5884 5886 5887 5889 5890 5891 5892 5893 5894 5894 5894 5894 5894 5894 5894 5894 5894 5894 5894 5894 5894 5894 5894 5894 5894 5894 5894 5894 5896 5894 5894 5896 5897 5899 5899 5900 5901 5902 5903
5873 5874 5877 5879 5881 5884 5885 5887 5888 5889 5891 5892 5892 5893 5893 5893 5894 5894 5894 5893 5893 5893 5893 5893 5893 5892 5892 5892 5892 5893 5893 5893 5893 5893 5894 5895 5896 5897 5898 5899 5900 5901 5902
5869 5872 5874 5876 5878 5881 5883 5885 5887 5888 5889 5890 5891 5892 5892 5892 5892 5893 5893 5893 5892 5892 5892 5892 5892 5891 5891 5891 5891 5892 5892 5891 5892 5893 5892 5894 5894 5896 5897 5898 5899 5900 5901
5865 5867 5870 5873 5875 5878 5881 5882 5884 5885 5887 5888 5889 5890 5891 5891 5891 5892 5892 5892 5892 5891 5891 5891 5891 5891 5890 5890 5890 5890 5890 5891 5891 5891 5892 5892 5893 5894 5895 5896 5897 5898 5899
5859 5860 5864 5869 5872 5875 5878 5880 5882 5884 5885 5887 5888 5889 5890 5890 5890 5890 5891 5891 5891 5890 5890 5890 5890 5890 5890 5889 5889 5889 5889 5889 5888 5889 5890 5891 5891 5892 5893 5894 5895 5896 5897
5854 5855 5861 5865 5869 5872 5875 5877 5880 5882 5883 5884 5886 5887 5888 5889 5889 5890 5890 5890 5890 5890 5889 5889 5889 5889 5889 5888 5888 5888 5888 5888 5888 5888 5889 5889 5890 5890 5891 5892 5892 5893 5894
5852 5854 5857 5861 5865 5868 5871 5874 5877 5879 5881 5882 5884 5885 5887 5887 5888 5888 5888 5888 5889 5888 5888 5888 5888 5888 5888 5887 5887 5887 5887 5887 5887 5887 5887 5888 5888 5889 5889 5889 5890 5891 5891
5849 5851 5854 5857 5861 5865 5868 5871 5874 5877 5879 5880 5882 5883 5884 5885 5886 5887 5887 5887 5887 5887 5887 5887 5887 5887 5887 5886 5886 5886 5886 5886 5886 5886 5886 5886 5886 5887 5887 5887 5887 5888 5888
5844 5847 5850 5854 5858 5861 5865 5868 5871 5874 5876 5878 5880 5881 5882 5883 5884 5885 5886 5886 5886 5886 5886 5886 5886 5885 5885 5885 5885 5885 5885 5885 5884 5884 5884 5884 5884 5884 5884 5884 5884 5885 5885
5841 5843 5847 5851 5854 5858 5862 5865 5869 5871 5874 5876 5877 5879 5880 5882 5883 5884 5885 5885 5886 5886 5886 5885 5885 5885 5884 5884 5884 5884 5884 5883 5883 5883 5882 5882 5882 5882 5882 5882 5882 5882 5882
5838 5841 5845 5849 5852 5856 5860 5863 5866 5869 5872 5874 5875 5877 5879 5880 5882 5883 5884 5884 5885 5885 5885 5885 5884 5884 5884 5883 5883 5883 5883 5882 5881 5881 5880 5880 5880 5879 5879 5879 5879 5879 5879
5836 5839 5843 5847 5851 5854 5858 5861 5864 5867 5869 5872 5874 5876 5877 5879 5880 5882 5883 5883 5884 5884 5884 5884 5883 5883 5883 5883 5882 5882 5882 5882 5880 5879 5879 5878 5877 5877 5876 5876 5876 5875 5875
5835 5838 5841 5845 5849 5852 5855 5858 5862 5865 5868 5870 5872 5874 5876 5878 5879 5880 5882 5882 5883 5883 5883 5883 5883 5883 5882 5882 5881 5881 5880 5880 5879 5878 5877 5876 5875 5874 5873 5873 5872 5872 5871
5834 5837 5840 5844 5847 5850 5854 5857 5861 5864 5866 5869 5871 5873 5875 5877 5878 5879 5881 5881 5882 5882 5882 5882 5882 5882 5881 5881 5880 5879 5879 5878 5877 5876 5875 5874 5873 5872 5871 5870 5869 5868 5867
5834 5837 5840 5843 5846 5849 5853 5856 5860 5862 5865 5868 5870 5872 5874 5875 5877 5878 5879 5880 5881 5881 5881 5881 5881 5881 5880 5880 5879 5878 5877 5876 5875 5874 5873 5872 5871 5869 5868 5867 5865 5864 5863
5834 5838 5840 5843 5846 5849 5853 5856 5858 5861 5864 5866 5868 5870 5872 5874 5875 5877 5878 5879 5880 5880 5880 5880 5880 5879 5879 5878 5877 5876 5875 5874 5873 5872 5870 5869 5868 5867 5865 5864 5862 5861 5859